NEOSSAT

Last updated on Sun Apr 12 2026 00:03:41 GMT+0000 (Coordinated Universal Time)

1 39089U 13009D 26101.44934781 .00000141 00000+0 63421-4 0 9997 2 39089 98.4164 283.0721 0012212 86.2313 274.0270 14.35802777687161
UTC large
Height (km)
Speed (km/s)
/
Latitude / Longitude
Inclination (degrees)
Orbital Period (minutes)
Azimuth
Elevation
Range (km)
Doppler Factor

Next 0 passes for location: London (51.5072 / 0.1276)

Sorry there are no passes over London.
NEOSSAT